Location: Brunembert
(50.7122°N, 1.8935°E)
Time: 14:25:45
(UTC+00:00)

X-37B - Pass Details

Date: 02 October 2021
Orbit: 385 x 389 km, 45.0° (Epoch: 17 October)

Event Time Altitude Azimuth Distance (km) Brightness Sun altitude
Exits shadow 04:52:50 12° 227° (SW) 1,308 2.8 -10.6°
Maximum altitude 04:53:54 13° 205° (SSW) 1,226 2.8 -10.4°
Drops below altitude 10° 04:55:32 10° 174° (S) 1,410 3.4 -10.1°
Sets 04:58:22 0° 146° (SSE) 2,262 4.9 -9.7°
